Location: Rainwater Observatory
(33.2833°N, 89.3833°W)
Time: 13:34:50
(UTC-05:00)

Daily predictions for brighter satellites

Satellite Brightness Start Highest point End
(mag) Time Altitude Azimuth Time Altitude Azimuth Time Altitude Azimuth
NOSS 3-2 (A) 4.2 20:12:31 10° SSE 20:17:10 26° ESE 20:22:03 10° NE
Cosmos 44 4.2 20:12:57 10° NNW 20:18:01 42° ENE 20:23:08 10° SE
Okean 2 Rocket 3.1 20:18:41 10° N 20:23:05 67° E 20:27:29 10° SSE
HJ-1C 3.8 20:19:53 10° S 20:23:15 69° W 20:26:40 10° NNW
CZ-2D R/B 3.3 20:19:42 10° SSE 20:23:32 85° ENE 20:27:26 10° N
Cosmos 1674 Rocket 4.4 20:20:45 10° SSE 20:24:40 32° E 20:28:38 10° NNE
USA 234 3.3 20:18:40 10° NE 20:25:16 88° SE 20:31:51 10° SW
Meteor 1-5 Rocket 4.4 20:19:33 10° N 20:25:22 63° E 20:31:15 10° SSE
Cosmos 1536 3.1 20:22:09 10° N 20:26:07 49° E 20:30:04 10° SSE
Atlas Centaur 2 1.5 20:24:45 10° WSW 20:28:26 44° S 20:31:51 10° E
Delta 168 3.9 20:26:40 10° SW 20:29:11 19° S 20:31:30 10° SE
Tiangong 2 1.8 20:26:47 10° SSW 20:29:39 33° SE 20:32:31 10° ENE
Resurs 01 Rocket 2.4 20:25:46 10° SE 20:29:44 34° ENE 20:33:44 10° N
Cosmos 2082 Rocket 2.5 20:25:44 10° SSW 20:31:21 76° WNW 20:37:03 10° NNE
Cosmos 1777 Rocket 4.4 20:28:48 10° N 20:33:48 46° ENE 20:38:46 10° SE
COSMOS 2487 3.2 20:31:24 10° SSE 20:34:31 32° ESE 20:37:40 10° NE
Envisat 3.3 20:31:22 10° S 20:36:24 72° WSW 20:41:30 10° NNW
Thor Agena Rocket 3.6 20:34:00 10° NNE 20:39:18 84° ESE 20:44:31 10° SSW
Cosmos 1184 Rocket 2.9 20:36:18 10° S 20:39:35 58° E 20:42:53 10° NNE
SJ-6B 3.4 20:38:01 10° S 20:41:41 56° W 20:45:21 10° NNW
Cosmos 371 Rocket 3.6 20:39:18 10° SSW 20:44:06 74° WNW 20:48:55 10° NNE
DELTA 2 R/B (2) 4.1 20:44:09 10° SSW 20:45:17 19° SSE 20:45:17 19° SSE
USA 186 1.7 20:44:58 10° S 20:47:56 80° WSW 20:51:09 10° NNW
Cosmos 2278 3.7 20:43:29 10° NNW 20:49:10 89° ENE 20:54:51 10° SSE
Cosmos 1459 Rocket 4.2 20:44:13 10° SSW 20:50:13 72° W 20:56:17 10° N
IUS-9 SRM-1 3.8 20:47:57 10° WSW 20:51:22 46° SSE 21:04:51 10° E
Cosmos 2151 Rocket 3.5 20:49:06 10° N 20:53:35 80° E 20:57:59 10° S
CENTAUR R/B 4.0 20:55:22 13° ESE 20:55:22 13° ESE 20:57:50 10° ENE
GPS 2-04 Rocket1 3.1 20:51:44 10° WNW 20:55:57 65° N 20:59:43 13° E
Cosmos 2173 Rocket 4.5 20:49:41 10° SSW 20:56:00 66° W 21:02:21 10° N
Cosmos 2061 Rocket 4.2 20:49:40 10° S 20:56:05 80° W 21:02:28 10° N
SL-08 R/B 4.5 20:52:54 10° S 20:59:15 76° E 21:05:31 10° N
Okean 3 3.4 20:55:30 10° S 20:59:48 79° E 21:04:05 10° N
Lacrosse 4 Rocket 4.1 20:57:22 10° WNW 21:00:20 18° WSW 21:03:18 10° SSW
ATLAS 3B R/B 2.8 20:56:53 10° SSW 21:04:10 89° WNW 21:11:13 10° NNE
Cosmos 1939 Rocket 3.6 21:04:57 10° S 21:08:56 54° W 21:12:58 10° NNW
Cosmos 1300 Rocket 3.4 21:05:26 10° N 21:09:49 84° E 21:13:24 15° S
Okean 1 3.3 21:08:32 12° S 21:12:10 63° E 21:16:11 10° NNE
Delta 7925 Rocket 4.0 21:08:27 10° SW 21:12:32 31° S 21:14:13 25° SE
Spot 2 Rocket 3.4 21:11:22 15° SSE 21:15:35 85° ENE 21:20:39 10° NNW
Cosmos 44 Rocket 3.4 21:11:49 10° NNW 21:17:02 89° WSW 21:20:20 23° SSE
Cosmos 2016 Rocket 4.4 21:11:20 10° SSW 21:17:21 62° W 21:23:25 10° N
Cosmos 2084 4.4 21:17:48 26° ESE 21:17:48 26° ESE 21:21:05 10° ENE
Cosmos 1697 Rocket 3.0 21:17:04 10° NNW 21:22:41 65° WSW 21:27:06 16° S
Cosmos 468 Rocket 4.1 21:17:39 10° S 21:22:46 52° ESE 21:27:51 10° NNE
Tsikada Rocket 4.0 21:17:48 10° N 21:24:12 71° E 21:28:50 20° SSE
Resurs 1-3 4.5 21:20:00 10° S 21:24:13 47° W 21:28:27 10° NNW
Meteor 1-18 Rocket 4.3 21:18:47 10° S 21:24:33 84° W 21:30:28 10° N
Cosmos 1725 Rocket 4.2 21:20:48 10° SSW 21:26:56 74° W 21:33:08 10° N
ISS -2.4 21:23:51 10° WSW 21:26:57 40° NW 21:30:04 10° NNE
Cosmos 1500 3.8 21:23:18 10° NNW 21:27:05 56° W 21:29:50 18° SSW
Cosmos 909 Rocket 4.4 21:23:24 10° NNW 21:29:50 74° WSW 21:35:10 20° SSE
SL-08 RB Rocket 4.5 21:29:44 30° ESE 21:30:52 35° ENE 21:34:59 10° N
Cosmos 1570 Rocket 4.0 21:25:53 10° SSW 21:31:12 85° WNW 21:36:35 10° NNE
Cosmos 1980 Rocket 2.1 21:28:51 10° NNW 21:34:32 87° ENE 21:37:31 29° SSE
Cosmos 1763 Rocket 3.9 21:34:07 32° SE 21:35:46 41° ESE 21:40:44 10° NNE
Cosmos 841 Rocket 4.4 21:37:55 28° E 21:37:55 28° E 21:42:09 10° NE
Cosmos 1666 2.7 21:38:22 10° N 21:42:11 57° E 21:42:31 54° ESE
Cosmos 1743 2.8 21:39:52 10° N 21:43:38 53° E 21:43:46 53° E
OAO 1 Rocket 4.3 21:38:33 10° WSW 21:43:53 87° S 21:47:11 24° ENE
H-2A R/B 2.1 21:44:12 41° ESE 21:45:32 54° ENE 21:50:22 10° N
Meteor 2-4 Rocket 3.9 21:45:41 39° SE 21:46:54 46° E 21:52:06 10° NNE
Abrixas rocket 2.6 21:43:57 10° WSW 21:47:08 61° NW 21:48:33 29° NE
Cosmos 1340 Rocket 4.2 21:51:32 26° ENE 21:51:32 26° ENE 21:53:54 10° NNE
Cosmos 2346 Rocket 4.4 21:44:32 10° N 21:50:48 87° W 21:54:12 29° S
DMSP B5D2-2 4.3 21:46:18 10° NNE 21:51:23 46° E 21:52:04 44° ESE
Iridium 2 3.5 21:53:45 76° ESE 21:53:48 77° E 21:57:37 10° N
Helios 1B rocket 4.1 21:50:52 10° NE 21:52:46 21° ENE 21:52:46 21° ENE
Cosmos 1455 Rocket 4.2 21:52:47 10° NNE 21:56:06 30° ENE 21:56:06 30° ENE
deb Kosmos-1763 4.3 21:57:31 52° SW 21:58:14 69° WNW 22:01:56 10° NNE
ATLAS CENTAUR R/B 1.8 21:53:44 10° NW 21:58:19 67° WSW 21:59:25 49° S
Cosmos 1975 Rocket 3.2 21:59:35 37° SSW 22:01:09 67° W 22:05:27 10° N
Meteor 1-13 Rocket 4.2 21:58:58 36° S 22:01:29 78° E 22:07:25 10° N
Cosmos 1242 Rocket 2.8 21:59:18 10° N 22:02:29 64° NNE 22:02:29 64° NNE
Cosmos 1898 Rocket 3.5 21:59:26 10° N 22:04:42 64° ENE 22:05:31 55° ESE
Okean 1 Rocket 4.3 22:00:47 10° NNW 22:04:48 37° W 22:06:40 25° SW
Resurs 01 Rocket 4.1 22:03:30 10° SW 22:06:16 16° W 22:09:03 10° NW
Tiangong 2 2.8 22:03:29 10° W 22:06:21 32° NNW 22:06:45 31° N
EPKM 4.4 22:03:50 10° WSW 22:05:17 15° SW 22:05:17 15° SW
Cosmos 1814 Rocket 3.8 22:06:16 47° S 22:07:48 82° ESE 22:13:06 10° NNE
Cosmos 1072 Rocket 4.5 22:06:21 45° SSE 22:08:14 65° E 22:14:30 10° NNE
ERS-1 Rocket 2.8 22:07:59 62° SE 22:08:45 77° ENE 22:13:46 10° N
MetOp-A 4.3 22:08:48 41° SSW 22:10:37 66° WSW 22:15:57 10° NNW
NOSS 3-2 (C) 4.0 22:05:08 10° SW 22:10:49 55° NW 22:17:04 10° NNE
BREEZE M DEB (TANK) 3.7 22:04:57 10° NW 22:12:17 35° NNE 22:13:13 31° NE
Cosmos 1975 3.8 22:09:32 10° NNW 22:13:20 41° W 22:14:02 37° WSW
Cosmos 292 Rocket 4.0 22:16:52 54° ENE 22:16:52 54° ENE 22:20:48 10° NNE
BREEZE-M DEB (TANK) 4.4 22:14:06 10° WNW 22:14:31 14° WNW 22:14:31 14° WNW
Atlas Centaur 2 2.9 22:13:20 10° W 22:14:50 22° WSW 22:14:50 22° WSW
Meteor 2-20 4.3 22:11:55 10° N 22:18:03 78° E 22:19:21 57° SSE
Meteor 2-20 Rocket 4.4 22:14:59 10° N 22:21:04 62° E 22:21:48 57° ESE
Cosmos 2322 Rocket 2.1 22:17:50 10° NNW 22:23:25 67° ENE 22:23:50 64° E
Cosmos 1544 Rocket 3.9 22:19:05 10° N 22:22:46 56° NNE 22:22:46 56° NNE
SL-16 R/B 2.0 22:24:15 10° NNW 22:29:57 81° ENE 22:30:19 76° ESE
Cosmos 2150 Rocket 4.3 22:25:23 10° N 22:30:25 53° ENE 22:30:25 53° ENE
ARGOS 4.2 22:30:47 31° SW 22:32:28 39° W 22:37:29 10° NNW
SPOT 5 3.0 22:33:18 60° N 22:33:18 60° N 22:36:58 10° N
Cosmos 990 Rocket 3.9 22:28:26 10° NNW 22:33:34 84° NE 22:33:34 84° NE
Cosmos 1536 Rocket 4.3 22:35:35 47° NNE 22:35:35 47° NNE 22:38:47 10° N
GPS 2-04 Rocket1 4.2 22:31:31 10° W 22:34:05 34° W 22:34:05 34° W
Landsat 7 4.2 22:39:40 58° NNE 22:39:40 58° NNE 22:43:38 10° N
Helios 1A 3.8 22:40:33 49° NW 22:40:33 49° NW 22:43:42 10° NNW
CZ-2C R/B 4.2 22:41:02 33° NE 22:41:02 33° NE 22:45:15 10° N
SJ 16-02 3.3 22:39:51 10° NNE 22:42:00 21° NE 22:42:00 21° NE
CENTAUR R/B 2.5 22:42:22 38° SW 22:44:43 73° WNW 22:51:19 10° NNE
Cosmos 2298 Rocket 4.1 22:44:35 10° NNW 22:49:23 73° NNW 22:49:23 73° NNW
Cosmos 2034 Rocket 3.8 22:49:35 78° SSW 22:50:01 86° W 22:56:12 10° N
Terra 2.6 22:58:53 46° N 22:58:53 46° N 23:02:18 10° N
SL-19 R/B 4.4 23:03:43 81° W 23:03:43 81° W 23:09:52 10° NNW
Gbstr 26 Del rocket 4.3 22:55:32 10° NW 23:03:43 80° SW 23:04:27 73° S
Lacrosse 5 rocket 4.0 23:01:47 10° N 23:03:33 14° NNE 23:03:33 14° NNE
Cosmos 1937 Rocket 4.5 23:03:57 10° NNW 23:08:06 39° W 23:08:06 39° W
Cosmos 2360 Rocket 2.6 23:10:15 10° NNW 23:14:49 59° N 23:14:49 59° N
Cosmos 540 Rocket 4.4 23:21:34 44° NW 23:21:34 44° NW 23:25:55 10° N
Cosmos 1634 Rocket 4.4 23:22:17 54° NE 23:22:17 54° NE 23:27:19 10° NNE
Cosmos 2219 Rocket 3.9 23:18:07 10° N 23:21:44 23° NE 23:21:44 23° NE
CZ-4C R/B 4.1 23:16:09 10° N 23:22:34 31° NE 23:24:16 29° ENE
H-2A R/B 4.4 23:24:49 12° W 23:25:15 13° W 23:27:22 10° WNW
Cosmos 2333 Rocket 3.9 23:23:58 10° N 23:27:46 23° NE 23:27:46 23° NE
CZ-2C R/B 3.3 23:25:14 10° N 23:29:28 53° N 23:29:28 53° N
COSMOS 2428 3.8 23:26:43 10° N 23:30:47 36° NNE 23:30:47 36° NNE
